Zurück zum Katalog

EUTE 115 WEST B(SATMEX 7

AktivKommunikationGEO
NORAD 40425·PAYLOAD·🇪🇺 EU

Gestartet Mar 2, 2015 von Cape Canaveral Space Force Station

Loading…

TLE

AktuellSource: Space-Track

Epoche: Sep 14, 2026, 13:15 UTC

1 40425U 15010B   26257.55243745 -.00000033  00000-0  00000-0 0  9996
2 40425   0.0235 317.1927 0000152 115.4814   4.8480  1.00271112 42273

Verfolge EUTE 115 WEST B(SATMEX 7 in Echtzeit mit AllMySat

Download on the App Store